[[{"header":{"parameterUnit":"m.s-1","parameterCategory":1,"la1":30.2991,"la2":30.254,"lo1":-89.0895,"lo2":-89.0444,"dy":0.0017,"dx":0.0017,"nx":28,"ny":28,"refTime":"2024-10-01T21:00:00:Z","depth":0,"parameterNumber":2,"parameterNumberName":"U-component_of_WINDS"},"data":[0,0,0,0,0,0,0,0,0,0,0,0,0,0,0,0,0,0,0,0,0,0,0,0,0,0,0,0,0,0,0,0,0,0,0,0,0,0,0,0,0,0,0,0,0,0,0,0,0,0,0,0,0,0,0,0,0,0,-1.0911,-1.0912,0,-1.0945,-1.0945,-1.0945,-1.0921,-1.092,-1.0919,-1.0918,-1.0952,-1.0954,-1.0956,0,0,0,0,0,0,0,0,0,0,0,0,0,-1.0827,-1.0829,-1.0911,-1.0912,-1.0912,-1.0945,-1.0945,-1.0945,-1.0921,-1.092,-1.0918,-1.0917,-1.0952,-1.0954,-1.0956,0,0,0,0,0,0,0,0,0,0,0,0,0,-1.0862,-1.0829,-1.0911,-1.0904,-1.0903,-1.0944,-1.0945,-1.0946,-1.0921,-1.092,-1.0918,-1.0917,-1.0951,-1.0954,-1.0957,-1.1007,0,0,-1.0965,-1.0967,0,0,0,0,0,0,0,0,-1.086,-1.0865,-1.0904,-1.0904,-1.0904,-1.0927,-1.0928,-1.0966,-1.0922,-1.0915,-1.0918,-1.0916,-1.0945,-1.0948,-1.0958,-1.1008,-1.101,-1.0966,-1.0967,-1.0969,-1.097,0,0,0,0,0,0,0,-1.0858,-1.0864,-1.0924,-1.0905,-1.0905,-1.0899,-1.0902,-1.0935,-1.0939,-1.0915,-1.0913,-1.0918,-1.0945,-1.0956,-1.0959,-1.101,-1.0966,-1.0968,-1.097,-1.0971,-1.1105,-1.1106,0,0,0,0,0,0,-1.0856,-1.0862,-1.0923,-1.0925,-1.0878,-1.0902,-1.0905,-1.0921,-1.0938,-1.0939,-1.0919,-1.0916,-1.0951,-1.0956,-1.096,-1.1021,-1.0969,-1.0971,-1.0973,-1.1103,-1.1105,-1.1107,0,0,0,0,0,0,-1.0854,-1.0862,-1.0922,-1.0893,-1.09,-1.0905,-1.0923,-1.0923,-1.0933,-1.0941,-1.0942,-1.0929,-1.095,-1.0956,-1.0996,-1.1022,-1.0973,-1.0975,-1.1101,-1.1103,-1.1106,-1.1143,0,0,0,0,0,0,-1.0852,-1.0861,-1.088,-1.0894,-1.0902,-1.0957,-1.0924,-1.0925,-1.0938,-1.0935,-1.0951,-1.0952,-1.095,-1.0991,-1.0999,-1.1025,-1.0978,-1.1098,-1.1102,-1.1105,-1.1139,-1.1146,-1.1152,0,0,0,0,0,-1.0849,-1.0889,-1.0881,-1.0889,-1.0926,-1.0958,-1.0963,-1.0959,-1.0941,-1.096,-1.0965,-1.0952,-1.1018,-1.0996,-1.1003,-1.1031,-1.1097,-1.1101,-1.1105,-1.1136,-1.1145,-1.1152,0,0,0,0,0,0,-1.0879,-1.0891,-1.0882,-1.0928,-1.0942,-1.0954,-1.0978,-1.0969,-1.0989,-1.0985,-1.0979,-1.0983,-1.1025,-1.1032,-1.1007,-1.1081,-1.1054,-1.106,-1.1075,-1.1084,-1.109,-1.1088,-1.098,0,0,0,0,0,-1.089,-1.0916,-1.0925,-1.0964,-1.0972,-1.0974,-1.0988,-1.0984,-1.0999,-1.1005,-1.1012,-1.1028,-1.1052,-1.1068,-1.109,-1.114,-1.1143,-1.1162,-1.1169,-1.1174,-1.118,-1.1208,-1.1217,-1.112,-1.112,-1.112,0,0,-1.0915,-1.0925,-1.0941,-1.097,-1.0981,-1.1008,-1.0979,-1.1008,-1.1029,-1.1009,-1.1047,-1.1054,-1.107,-1.1115,-1.1135,-1.1122,-1.1207,-1.118,-1.1184,-1.1187,-1.1213,-1.1222,-1.123,-1.1123,-1.1123,-1.1122,0,0,-1.0974,-1.0983,-1.1018,-1.1029,-1.1046,-1.1047,-1.1055,-1.1069,-1.1072,-1.111,-1.1097,-1.112,-1.1162,-1.1174,-1.1186,-1.125,-1.1239,-1.1258,-1.1293,-1.132,-1.1328,-1.1334,-1.1358,-1.1367,-1.1263,-1.1263,-1.1263,0,-1.1002,-1.1042,-1.1036,-1.1067,-1.1081,-1.1064,-1.11,-1.1111,-1.1134,-1.1144,-1.1129,-1.1181,-1.1191,-1.1239,-1.1255,-1.1265,-1.1275,-1.1257,-1.1327,-1.1334,-1.134,-1.1363,-1.1372,-1.1265,-1.1265,-1.1265,-1.1265,0,-1.1077,-1.1105,-1.113,-1.1154,-1.117,-1.1203,-1.1203,-1.122,-1.1214,-1.1217,-1.1257,-1.1268,-1.1293,-1.1304,-1.1299,-1.1352,-1.1343,-1.1327,-1.1301,-1.1351,-1.1373,-1.1382,-1.1269,-1.1268,-1.1267,-1.1266,0,0,-1.1156,-1.1176,-1.1186,-1.1196,-1.1214,-1.1235,-1.1267,-1.1292,-1.1307,-1.1324,-1.1351,-1.1387,-1.1373,-1.1386,-1.1382,-1.1405,-1.1457,-1.1387,-1.1387,-1.1401,-1.1518,-1.1531,-1.1541,-1.1449,-1.1451,-1.1452,-1.1517,0,-1.1217,-1.1273,-1.1269,-1.1322,-1.1348,-1.1333,-1.1361,-1.1375,-1.1379,-1.1402,-1.1405,-1.1431,-1.141,-1.1418,-1.1441,-1.1446,-1.1481,-1.1441,-1.1476,-1.1477,-1.1474,-1.1552,-1.1565,-1.1626,-1.1525,-1.1526,-1.1528,0,-1.1295,-1.1315,-1.1371,-1.1385,-1.1396,-1.1421,-1.1444,-1.1466,-1.1481,-1.1482,-1.1498,-1.149,-1.1523,-1.1494,-1.154,-1.1513,-1.1527,-1.1532,-1.1534,-1.1538,-1.1506,-1.156,-1.1645,-1.1655,-1.154,-1.1539,-1.1538,0,-1.1349,-1.1389,-1.1428,-1.1438,-1.1455,-1.1473,-1.1481,-1.1495,-1.151,-1.153,-1.154,-1.1563,-1.1576,-1.1595,-1.1593,-1.1572,-1.1641,-1.1611,-1.1643,-1.1643,-1.1659,-1.1659,-1.175,-1.1666,-1.1666,-1.1665,-1.1665,0,-1.1418,-1.1453,-1.1453,-1.1477,-1.1516,-1.1511,-1.155,-1.1556,-1.1569,-1.1594,-1.1582,-1.1606,-1.1602,-1.1626,-1.1625,-1.1664,-1.167,-1.1672,-1.1672,-1.1674,-1.1674,-1.1684,-1.1681,-1.1668,-1.1667,-1.1667,-1.1666,0,-1.1485,-1.1486,-1.1528,-1.1541,-1.1545,-1.1573,-1.1584,-1.1607,-1.161,-1.1642,-1.1649,-1.1654,-1.1682,-1.1682,-1.1714,-1.1713,-1.1761,-1.1755,-1.1756,-1.1756,-1.1788,-1.1785,-1.189,-1.1904,-1.1809,-1.181,-1.1811,0,-1.153,-1.1557,-1.1573,-1.1589,-1.1598,-1.1624,-1.164,-1.1636,-1.1653,-1.1673,-1.1694,-1.1721,-1.1742,-1.1788,-1.1794,-1.1818,-1.1814,-1.1849,-1.1817,-1.1819,-1.1816,-1.1815,-1.1818,-1.1855,-1.1856,-1.1857,-1.1858,0,-1.161,-1.1609,-1.1632,-1.1656,-1.1675,-1.1693,-1.171,-1.1724,-1.1722,-1.1742,-1.177,-1.1787,-1.182,-1.1847,-1.1871,-1.1879,-1.1869,-1.1867,-1.1876,-1.188,-1.188,-1.1882,-1.1774,-1.1865,-1.1865,-1.1864,-1.1864,-1.1863,-1.1668,-1.1692,-1.1707,-1.1733,-1.1746,-1.1762,-1.1785,-1.179,-1.1814,-1.184,-1.1836,-1.1869,-1.1884,-1.1915,-1.1925,-1.1951,-1.1939,-1.1951,-1.1955,-1.1958,-1.1963,-1.1875,-1.1955,-1.1955,-1.1955,-1.1954,-1.1954,0,-1.1749,-1.1758,-1.1782,-1.1806,-1.1827,-1.1815,-1.1833,-1.1852,-1.188,-1.1895,-1.1917,-1.195,-1.1977,-1.1985,-1.201,-1.2029,-1.2025,-1.2036,-1.2036,-1.2038,-1.1971,-1.1962,-1.2039,-1.2039,-1.2039,-1.2039,-1.2039,-1.2039,-1.1793,-1.1833,-1.1834,-1.188,-1.1889,-1.192,-1.1932,-1.1947,-1.1959,-1.1997,-1.2019,-1.2024,-1.2037,-1.2063,-1.2087,-1.2089,-1.21,-1.2113,-1.2113,-1.2051,-1.2042,-1.2034,-1.2025,-1.2115,-1.2115,-1.2178,-1.2178,-1.2179]},{"header":{"parameterUnit":"m.s-1","parameterCategory":1,"la1":30.2991,"la2":30.254,"lo1":-89.0895,"lo2":-89.0444,"dy":0.0017,"dx":0.0017,"nx":28,"ny":28,"refTime":"2024-10-01T21:00:00:Z","depth":0,"parameterNumber":3,"parameterNumberName":"V-component_of_WINDS"},"data":[0,0,0,0,0,0,0,0,0,0,0,0,0,0,0,0,0,0,0,0,0,0,0,0,0,0,0,0,0,0,0,0,0,0,0,0,0,0,0,0,0,0,0,0,0,0,0,0,0,0,0,0,0,0,0,0,0,0,-3.3268,-3.3268,0,-3.3304,-3.3304,-3.3305,-3.3252,-3.325,-3.3248,-3.3246,-3.3281,-3.3283,-3.3286,0,0,0,0,0,0,0,0,0,0,0,0,0,-3.3151,-3.3154,-3.3268,-3.3268,-3.3269,-3.3304,-3.3304,-3.3305,-3.3252,-3.325,-3.3247,-3.3245,-3.328,-3.3283,-3.3286,0,0,0,0,0,0,0,0,0,0,0,0,0,-3.3196,-3.3155,-3.3268,-3.3247,-3.3245,-3.3304,-3.3304,-3.3305,-3.3252,-3.325,-3.3247,-3.3244,-3.3279,-3.3283,-3.3287,-3.3367,0,0,-3.3299,-3.33,0,0,0,0,0,0,0,0,-3.3194,-3.32,-3.3249,-3.3248,-3.3247,-3.327,-3.3276,-3.3326,-3.3253,-3.325,-3.3246,-3.3243,-3.3279,-3.3283,-3.3296,-3.3369,-3.337,-3.3299,-3.3302,-3.3303,-3.3304,0,0,0,0,0,0,0,-3.3191,-3.3199,-3.3282,-3.325,-3.3248,-3.3235,-3.3238,-3.3285,-3.328,-3.325,-3.3246,-3.3251,-3.3278,-3.3292,-3.3296,-3.3371,-3.3299,-3.3303,-3.3305,-3.3307,-3.3511,-3.3514,0,0,0,0,0,0,-3.319,-3.3196,-3.3281,-3.3283,-3.3213,-3.3239,-3.3243,-3.3266,-3.3279,-3.3278,-3.3253,-3.3248,-3.3287,-3.3292,-3.3297,-3.3392,-3.3303,-3.3307,-3.3309,-3.3508,-3.3512,-3.3515,0,0,0,0,0,0,-3.3188,-3.3198,-3.3279,-3.3239,-3.3248,-3.3244,-3.327,-3.3268,-3.3282,-3.3282,-3.328,-3.3269,-3.3285,-3.3292,-3.335,-3.3393,-3.3309,-3.3312,-3.3505,-3.3509,-3.3513,-3.3583,0,0,0,0,0,0,-3.3185,-3.3198,-3.3229,-3.324,-3.3251,-3.3333,-3.3273,-3.327,-3.3289,-3.3283,-3.3296,-3.3295,-3.3283,-3.3345,-3.3354,-3.3397,-3.3315,-3.3501,-3.3507,-3.3512,-3.3577,-3.359,-3.3601,0,0,0,0,0,-3.3181,-3.3247,-3.3231,-3.3241,-3.3289,-3.3335,-3.3341,-3.3326,-3.3293,-3.3324,-3.3324,-3.3295,-3.3387,-3.3351,-3.3361,-3.3406,-3.3498,-3.3505,-3.3512,-3.3572,-3.3587,-3.36,0,0,0,0,0,0,-3.3239,-3.3248,-3.323,-3.3301,-3.3318,-3.3326,-3.3364,-3.3343,-3.3369,-3.3362,-3.3342,-3.3345,-3.3408,-3.3413,-3.3373,-3.3485,-3.3437,-3.3446,-3.3479,-3.3494,-3.3505,-3.3502,-3.3319,0,0,0,0,0,-3.3261,-3.3298,-3.3303,-3.3365,-3.3375,-3.3368,-3.3388,-3.3375,-3.3391,-3.3398,-3.3402,-3.3418,-3.3451,-3.3472,-3.3502,-3.3578,-3.358,-3.3614,-3.3625,-3.3635,-3.3643,-3.3683,-3.3698,-3.3538,-3.3538,-3.3537,0,0,-3.3305,-3.3314,-3.3339,-3.3377,-3.3389,-3.3427,-3.3375,-3.3417,-3.3446,-3.3404,-3.346,-3.3464,-3.348,-3.3548,-3.3578,-3.3554,-3.3688,-3.3643,-3.3651,-3.3654,-3.3692,-3.3707,-3.3721,-3.3542,-3.3541,-3.3541,0,0,-3.3405,-3.3416,-3.3469,-3.3482,-3.3501,-3.3496,-3.3509,-3.3521,-3.3522,-3.3578,-3.3547,-3.358,-3.3637,-3.365,-3.3664,-3.3771,-3.3745,-3.3781,-3.3841,-3.3881,-3.3894,-3.3905,-3.3943,-3.3956,-3.3789,-3.3789,-3.3789,0,-3.3457,-3.3515,-3.3499,-3.3545,-3.3562,-3.3528,-3.3581,-3.3594,-3.3621,-3.3634,-3.3607,-3.3677,-3.3686,-3.3756,-3.3783,-3.3795,-3.3809,-3.3779,-3.3893,-3.3904,-3.3914,-3.395,-3.3965,-3.3793,-3.3793,-3.3792,-3.3792,0,-3.3578,-3.3619,-3.366,-3.3688,-3.371,-3.376,-3.3751,-3.3775,-3.3761,-3.3759,-3.3816,-3.3826,-3.3857,-3.3873,-3.3859,-3.3941,-3.3926,-3.3897,-3.3848,-3.3934,-3.3968,-3.3981,-3.3799,-3.3798,-3.3796,-3.3795,0,0,-3.3715,-3.3735,-3.375,-3.3763,-3.3781,-3.3812,-3.386,-3.3891,-3.3913,-3.3932,-3.3972,-3.4021,-3.3994,-3.401,-3.3997,-3.4032,-3.4116,-3.3998,-3.3998,-3.402,-3.4207,-3.4229,-3.4245,-3.4099,-3.4102,-3.4104,-3.4206,0,-3.3815,-3.3899,-3.3886,-3.3966,-3.4003,-3.3971,-3.4013,-3.4028,-3.4028,-3.4059,-3.4058,-3.4094,-3.4056,-3.4065,-3.4098,-3.4099,-3.4153,-3.4091,-3.4135,-3.4137,-3.4132,-3.4263,-3.4286,-3.4382,-3.4219,-3.4221,-3.4223,0,-3.3943,-3.3969,-3.4053,-3.4066,-3.4081,-3.4119,-3.4147,-3.4177,-3.4194,-3.4192,-3.421,-3.4191,-3.4238,-3.419,-3.4254,-3.4212,-3.423,-3.4233,-3.4236,-3.4239,-3.4185,-3.4269,-3.4412,-3.4426,-3.4243,-3.4241,-3.424,0,-3.4034,-3.409,-3.4148,-3.416,-3.4176,-3.4204,-3.4212,-3.4226,-3.4246,-3.427,-3.4283,-3.4313,-3.4329,-3.4352,-3.4341,-3.4306,-3.4407,-3.4358,-3.4406,-3.4406,-3.4428,-3.4427,-3.4575,-3.444,-3.444,-3.444,-3.4439,0,-3.4147,-3.4199,-3.4189,-3.4225,-3.4283,-3.4268,-3.4326,-3.433,-3.4343,-3.4378,-3.4352,-3.4385,-3.4369,-3.4402,-3.4393,-3.4448,-3.4456,-3.4454,-3.4452,-3.4457,-3.4457,-3.4467,-3.446,-3.4443,-3.4443,-3.4442,-3.4441,0,-3.4258,-3.4254,-3.4314,-3.4326,-3.433,-3.4373,-3.4382,-3.4415,-3.4413,-3.4458,-3.4468,-3.4465,-3.4502,-3.4493,-3.4533,-3.4528,-3.4597,-3.4585,-3.4591,-3.4589,-3.4637,-3.4633,-3.4798,-3.4818,-3.467,-3.4671,-3.4673,0,-3.433,-3.437,-3.4387,-3.4409,-3.4419,-3.4456,-3.4476,-3.4463,-3.4486,-3.4508,-3.4539,-3.4573,-3.46,-3.466,-3.4661,-3.4692,-3.4681,-3.4737,-3.4685,-3.4689,-3.4682,-3.4679,-3.4683,-3.4747,-3.4748,-3.475,-3.4751,0,-3.4458,-3.4454,-3.4486,-3.4517,-3.4543,-3.4566,-3.4587,-3.4606,-3.4595,-3.4621,-3.4659,-3.468,-3.4722,-3.4757,-3.4785,-3.4792,-3.477,-3.4767,-3.478,-3.4786,-3.4787,-3.4787,-3.4619,-3.4763,-3.4762,-3.4761,-3.4761,-3.476,-3.4552,-3.4586,-3.4604,-3.4639,-3.4654,-3.4675,-3.4706,-3.4709,-3.4741,-3.4774,-3.4764,-3.4808,-3.4824,-3.486,-3.4871,-3.4904,-3.4883,-3.4901,-3.4906,-3.4911,-3.4917,-3.4783,-3.4909,-3.4909,-3.4908,-3.4908,-3.4908,0,-3.4679,-3.4688,-3.4722,-3.4753,-3.4781,-3.4759,-3.4781,-3.4806,-3.4844,-3.4862,-3.4889,-3.4933,-3.4967,-3.4971,-3.5002,-3.5028,-3.5019,-3.5037,-3.5035,-3.5037,-3.4934,-3.4919,-3.5044,-3.5044,-3.5044,-3.5044,-3.5044,-3.5044,-3.4748,-3.4805,-3.4803,-3.4867,-3.4876,-3.4919,-3.4934,-3.4952,-3.4966,-3.5017,-3.5045,-3.5048,-3.506,-3.5093,-3.5122,-3.5123,-3.5135,-3.5158,-3.5154,-3.5058,-3.5044,-3.5031,-3.5017,-3.5161,-3.5161,-3.5254,-3.5255,-3.5256]}]]